Regional Weather Roundup
Issued by NWS

Home | Current Version | Previous Version | Graphics & Text | Print | Product List | Glossary On
Versions: 1 2 3 4 5 6 7 8 9 10 11 12 13 14 15 16 17 18 19 20 21 22 23 24 25 26 27 28 29 30 31 32 33 34 35 36 37 38 39 40 41 42 43 44 45 46 47 48 49 50
000
ASUS43 KTOP 192308
RWRKS

WEATHER ROUNDUP FOR KANSAS
NATIONAL WEATHER SERVICE GOODLAND KS
600 PM CDT SAT APR 19 2014

NOTE:  "FAIR" INDICATES FEW OR NO CLOUDS BELOW 12,000 FEET WITH NO
SIGNIFICANT WEATHER AND/OR OBSTRUCTIONS TO VISIBILITY.

KSZ001>006-013>018-027>032-041>047-200000-
NORTHWEST KANSAS

CITY           SKY/WX    TMP DP  RH WIND       PRES   REMARKS
GOODLAND       SUNNY     69  47  45 NE8G18    29.99R
HAYS           CLOUDY    77  48  36 S25G32    29.92R
HILL CITY      PTSUNNY   81  48  31 S23G32    29.87S
RUSSELL        CLOUDY    78  48  34 S28G38    29.90R
$$

KSZ061>065-074>080-084>089-200000-
SOUTHWEST KANSAS

CITY           SKY/WX    TMP DP  RH WIND       PRES   REMARKS
DODGE CITY     PTSUNNY   78  44  29 S25G31    29.94S
ELKHART          N/A     76  45  33 S22         N/A
GARDEN CITY    PTSUNNY   81  43  26 S24G33    29.90F
GREAT BEND     CLOUDY    75  50  41 S28G33    29.92F
LIBERAL        CLOUDY    77  46  33 SW25G31   29.97R
PRATT          CLOUDY    73  48  40 S18G25    29.99S
$$

KSZ066>073-081>083-090>101-200000-
SOUTHEAST KANSAS

CITY           SKY/WX    TMP DP  RH WIND       PRES   REMARKS
CHANUTE        MOSUNNY   74  43  32 S18       30.07F
COFFEYVILLE    SUNNY     77  46  33 S14       30.08S
HUTCHINSON     CLOUDY    81  50  33 S28G33    29.96F
MEDICINE LODGE   N/A     76  51  41 S20       29.98S
NEWTON         PTSUNNY   77  46  33 S23G32    30.03S
PARSONS        MOSUNNY   76  43  30 S12       30.08S
WICHITA INTL   PTSUNNY   79  48  33 S25G33    30.00S
WICHITA JABRA  PTSUNNY   79  49  34 S22G31    30.00F
WICHITA MCCONL PTSUNNY   78  47  33 S22G28    30.02R
WINFIELD       PTSUNNY   78  50  37 S17G25    30.03F
$$

KSZ007>012-019>026-033>040-048>060-102>105-200000-
NORTHEAST KANSAS

CITY           SKY/WX    TMP DP  RH WIND       PRES   REMARKS
CONCORDIA      PTSUNNY   78  50  37 S24G32    29.93F
EMPORIA        PTSUNNY   75  45  34 S20G30    30.02S
LAWRENCE       PTSUNNY   76  46  34 S15G24    30.05S
MANHATTAN      MOSUNNY   80  46  30 S18G29    29.98S
OLATHE IND     PTSUNNY   73  45  36 S14       30.08S
OLATHE EXE     MOSUNNY   72  44  36 S16G22    30.07S
SALINA         CLOUDY    79  50  36 S18G30    29.95S
TOPEKA BILLARD PTSUNNY   77  45  32 S18G26    30.03F
TOPEKA FORBES  CLOUDY    74  44  34 S18G28    30.03F
$$



USA.gov is the U.S. government's official web portal to all federal, state and local government web resources and services.